Home > Weather > Madaba > Past weeks

Flag for Jordan Past Weather in Madaba, Jordan — Yesterday and Last 2 Weeks

Now
91 °F

Clear.


Feels Like: 89 °F
Forecast: 67 / 93 °F
Wind: 16 mph from Northwest

Location: Queen Alia Airport

Current Time: Jul 28, 2016 at 3:33:20 PM

Latest Report: Jul 28, 2016 at 2:00 PM


Visibility: 4 mi

Pressure: 29.86 "Hg (27.35 "Hg at 788m altitude)

Humidity: 28%

Dew Point: 54 °F

Location of MadabaLocation

Past Weather in Madaba — Graph

°F

Madaba Temperature Yesterday

Maximum temperature yesterday: 93 °F (at 2:00 PM)
Minimum temperature yesterday: 66 °F (at 7:00 AM)
Average temperature yesterday: 84 °F

High & Low Weather Summary for the Past Weeks

 TemperatureHumidityPressure
High99 °F (Jul 15, 2:00 PM)88% (Jul 18, 6:00 AM)29.98 "Hg (Jul 18, 6:00 AM)
Low59 °F (Jul 28, 6:00 AM)13% (Jul 15, 1:00 PM)29.74 "Hg (Jul 18, 5:00 PM)
Average81 °F43%29.84 "Hg
* Reported Jul 13 2:00 PM — Jul 28 2:00 PM, Madaba, Weather by CustomWeather, © 2016

Note: Actual official high and low records may vary slightly from our data, if they occured in-between our weather recording intervals... More about our weather records

Advertising

Madaba Weather History for the Previous 24 Hours

Scroll right to see more
 ConditionsComfort  
Time TempWeatherWind HumidityBarometerVisibility
2:00 PM
Thu, Jul 28
91 °FClear.16 mph28%29.86 "Hg4 mi
1:00 PM90 °FSunny.14 mph31%29.86 "Hg10 mi
12:00 PM90 °FSunny.14 mph31%29.86 "Hg10 mi
11:00 AM88 °FClear.14 mph29%29.86 "Hg4 mi
10:00 AM84 °FSunny.14 mph35%29.86 "Hg10 mi
9:00 AM70 °FSunny.14 mph57%29.86 "Hg10 mi
7:00 AM63 °FMild.No wind56%29.83 "Hg4 mi
6:00 AM59 °FCool.No wind63%29.83 "Hg4 mi
5:00 AM61 °FClear.No wind59%29.83 "Hg10 mi
4:00 AM63 °FClear.No wind56%29.83 "Hg10 mi
3:00 AM66 °FClear.7 mph60%29.80 "Hg10 mi
2:00 AM68 °FClear.5 mph56%29.83 "Hg10 mi
1:00 AM70 °FClear.7 mph53%29.83 "Hg10 mi
12:00 AM70 °FClear.5 mph57%29.83 "Hg10 mi
11:00 PM
Wed, Jul 27
77 °FClear.5 mph51%29.83 "Hg10 mi
10:00 PM79 °FClear.5 mph48%29.86 "Hg10 mi
9:00 PM81 °FClear.7 mph48%29.83 "Hg10 mi
8:00 PM84 °FClear.9 mph37%29.83 "Hg5 mi
7:00 PM88 °FClear.9 mph33%29.83 "Hg5 mi
6:00 PM88 °FClear.16 mph31%29.83 "Hg5 mi
5:00 PM91 °FClear.14 mph26%29.83 "Hg5 mi
4:00 PM91 °FClear.16 mph24%29.83 "Hg4 mi
3:00 PM93 °FClear.14 mph17%29.86 "Hg5 mi
Weather by CustomWeather, © 2016

See weather overviewHow to use our weather pages